Moline, IL
on Tuesday, April 30, 2013

Tuesday
Previous Day Next Day
Daily Summary
 ActualAverageRecord
Temperature
Mean Temperature °F 57°F  
Max Temperature 86°F 68°F 89°F (1942)
Min Temperature 62°F 46°F 31°F (1971)
Degree Days
Heating Degree Days 0 9  
Month to date heating degree days 491 421  
Since 1 July heating degree days 6158 6023  
Cooling Degree Days 9 1  
Month to date cooling degree days 9 13  
Year to date cooling degree days 9 14  
Growing Degree Days24 (Base °F )  
Moisture
Dew Point 53°F   
Average Humidity 52    
Maximum Humidity 78    
Minimum Humidity 25    
Precipitation
Precipitation 0.00 in 0.14 in 1.52 in (2003)
Month to date precipitation 7.21 3.59  
Year to date precipitation 15.18 9.54  
Snow
Snow 0.00 in 0.00 in in ()
Month to date snowfall T 0.9  
Since 1 July snowfall 34.5 31.6  
Snow Depth 0.00 in   
Wind
Wind Speed 14 mph   
Max Wind Speed 28 mph   
Max Gust Speed 36 mph   
Visibility 10 miles   
Events     

Key: T is trace of precipitation, MM is missing value
Source: NWS Daily Summary
Time(CDT)TemperatureDew PointHumidity Pressure Visibility Wind DirectionWind SpeedGust SpeedPrecipitationEvents Conditions
12:52 AM 64.9°F 57.0°F 75% 29.68 in 10.0 miles SSE 12.7 mph - N/A   Clear
1:52 AM 63.0°F 55.9°F 78% 29.68 in 10.0 miles SSE 4.6 mph - N/A   Clear
2:52 AM 64.9°F 57.0°F 75% 29.68 in 10.0 miles South 9.2 mph 17.3 mph N/A   Clear
3:52 AM 66.0°F 57.9°F 75% 29.69 in 10.0 miles South 11.5 mph - N/A   Clear
4:52 AM 66.0°F 57.9°F 75% 29.69 in 10.0 miles South 12.7 mph - N/A   Clear
5:52 AM 64.0°F 57.9°F 80% 29.72 in 10.0 miles South 9.2 mph - N/A   Clear
6:52 AM 64.9°F 57.9°F 78% 29.74 in 10.0 miles Variable 5.8 mph - N/A   Clear
7:52 AM 66.9°F 59.0°F 76% 29.73 in 10.0 miles South 11.5 mph 19.6 mph N/A   Clear
8:52 AM 70.0°F 57.9°F 65% 29.73 in 10.0 miles SSW 13.8 mph 20.7 mph N/A   Clear
9:52 AM 75.9°F 55.0°F 48% 29.73 in 10.0 miles SW 21.9 mph 32.2 mph N/A   Clear
10:52 AM 77.0°F 52.0°F 42% 29.74 in 10.0 miles SW 24.2 mph 33.4 mph N/A   Clear
11:52 AM 82.0°F 50.0°F 33% 29.74 in 10.0 miles WSW 23.0 mph 35.7 mph N/A   Clear
12:52 PM 84.0°F 48.9°F 29% 29.74 in 10.0 miles WSW 16.1 mph 28.8 mph N/A   Clear
1:52 PM 86.0°F 48.2°F 27% 29.75 in 10.0 miles SSW 23.0 mph 28.8 mph N/A   Clear
2:52 PM 86.0°F 46.9°F 26% 29.73 in 10.0 miles SSW 23.0 mph 34.5 mph N/A   Clear
3:52 PM 84.9°F 50.0°F 30% 29.73 in 10.0 miles SSW 19.6 mph 26.5 mph N/A   Clear
4:52 PM 84.9°F 46.0°F 26% 29.74 in 10.0 miles SSW 20.7 mph 29.9 mph N/A   Clear
5:52 PM 82.9°F 48.0°F 29% 29.77 in 10.0 miles SSW 19.6 mph 26.5 mph N/A   Clear
6:52 PM 82.0°F 46.9°F 29% 29.78 in 10.0 miles SW 13.8 mph - N/A   Clear
7:52 PM 79.0°F 48.9°F 35% 29.80 in 10.0 miles SSW 8.1 mph - N/A   Clear
8:52 PM 72.0°F 51.1°F 48% 29.82 in 10.0 miles South 4.6 mph - N/A   Clear
9:52 PM 69.1°F 51.1°F 53% 29.84 in 10.0 miles SE 5.8 mph - N/A   Clear
10:52 PM 69.1°F 54.0°F 58% 29.86 in 10.0 miles SSE 8.1 mph - N/A   Clear
11:52 PM 71.1°F 53.1°F 53% 29.88 in 10.0 miles South 11.5 mph 19.6 mph N/A   Clear
Astronomy
Sunrise:06:00 AM (CDT) Moon Rise:12:23 AM (CDT)4/30
Sunset:07:58 PM (CDT) Moon Set:10:28 AM (CDT)4/30
Moon Phase
Apr. 30 May. 02 May. 10 May. 18 May. 25

Copyright © 2016 The Weather Underground, Inc.















  Today is Tuesday, June 28, the 180th day of 2016. There are 186 days left in the year.
1866 -- 150 years ago: The oil excitement in the upper end of this county is still on the increase, and another company, called the LeClaire Oil and Coal Mining Co., has been formed.
1891 -- 125 years ago: Elmore Stafford, son of M.W. Stafford, sustained a severe fall while crossing 4th Avenue, badly lacerating his left leg.
1916 -- 100 years ago: Physical director Clevett and Mrs. Clevett and assistant general secretary Bliss and Mrs. Bliss left for Lake Geneva to attend the YMCA summer school.
1941 -- 75 years ago: The Moline City Council approved a curb and gutter project and also the surfacing of streets in the Moline Housing Corp.'s 4th Street addition.
1966 -- 50 years ago: The Rock Island Police Department is conducting a three-day count of vehicles going to and from Rock Island via the Rock Island Arsenal Viaduct. Results will give Rock Island officials an idea of the additional traffic the city and the Rock Island Centennial Bridge can expect when the viaduct is closed.
1991 -- 25 years ago: Can it really have been 20 years since a brash bunch of amateurs declared themselves the Bix Beiderbecke Memorial Society and decided against all advice and common sense to stage the first Bix jazz festival in Davenport's LeClaire Park?